Location: Isle of Man Observatory
(54.1776°N, 4.6264°W)
Time: 00:20:57
(UTC+01:00)

ISS - Visible Passes

Search period start: 29 November 2023 00:00
Search period end: 09 December 2023 00:00
Orbit: 416 x 418 km, 51.6° (Epoch: 28 November)

Date Brightness Start Highest point End Pass type
(mag) Time Alt. Az. Time Alt. Az. Time Alt. Az.
29 Nov -3.2 18:14:37 10° W 18:17:55 55° S 18:21:00 11° ESE visible
29 Nov -2.0 19:51:21 10° W 19:53:55 29° SW 19:53:55 29° SW visible
30 Nov -2.5 19:02:58 10° W 19:06:07 37° SSW 19:07:42 23° SE visible
30 Nov -0.3 20:40:34 10° WSW 20:40:37 10° WSW 20:40:37 10° WSW visible
01 Dec -2.8 18:14:36 10° W 18:17:49 45° SSW 18:21:03 10° ESE visible
01 Dec -1.4 19:51:40 10° WSW 19:54:03 18° SSW 19:54:27 18° SSW visible
02 Dec -1.6 19:03:01 10° W 19:05:48 24° SSW 19:08:25 11° SSE visible
03 Dec -1.9 18:14:28 10° W 18:17:29 31° SSW 18:20:29 10° SE visible
04 Dec -0.7 19:03:23 10° WSW 19:05:11 14° SW 19:06:57 10° S visible
05 Dec -0.9 18:14:24 10° WSW 18:16:50 19° SSW 18:19:17 10° SSE visible
07 Dec 0.1 18:15:38 10° SW 18:15:53 10° SW 18:16:08 10° SW visible
